www.pogodaiklimat.ru

Погода и климат >> Архив погоды >> Пакистан >> Мултан


ПОГОДА в Мултане

  • Прогноз погоды в Мултане
  • Монитор погоды в Мултане

АРХИВ ПОГОДЫ в Мултане

Время (UTC), дата Ветер
(напр.,м/с)
 
Видим.   Явления Облачность Т
(С)
Тd
(С)
f
(%)
Тe
(С)
Тes
(С)
Комфортность P
(гПа)
Po
(гПа)
Тmin
(С)
Tmax
(С)
R
(мм)
R24
(мм)
S
(см)
18 15.07 штиль 0 4000 м дым {метель} 9/6 300 м
[Sc diur, vesp Ac As]
+31.0 +22.3 60 +40 +40 очень
душно
994.3 980.1
21 15.07 штиль 0 4000 м дым 4/0
[Ac trans]
+31.0 +22.3 60 +40 +40 очень
душно
995.1 1000.0
00 16.07 штиль 0 4000 м дым 3/0
[Ac trans]
+29.0 +23.2 71 +39 +39 очень
душно
994.4 980.2
03 16.07 ЮЗ 2 4000 м дым 3/0
[Ci fib]
+30.5 +25.6 75 +45 +51 опасность
перегрева
996.6 982.5 +28.9
06 16.07 ЮЗ 6 2000 м пыль 3/0
[Ac trans]
+34.5 +24.7 57 +48 +54 опасность
перегрева
998.1 983.9
09 16.07 ЮЗ 3 2000 м пыль 5/5 300 м
[Sc]
+37.0 +24.4 49 +49 +58 опасность
перегрева
997.7 1000.0
12 16.07 ЮЗ 2 4000 м мгла 8/4 1200 м
[Sc Ac trans]
+36.0 +25.6 55 +51 +52 опасность
перегрева
996.5 982.4 +37.1
15 16.07 ЮЗ 1 4000 м дым 5/1 1200 м
[Sc Ac trans]
+35.5 +25.1 55 +49 +49 опасность
перегрева
997.2 1000.0
18 16.07 СЗ 3 4000 м дым 8/6 300 м
[Sc Ac As]
+33.0 +25.3 64 +47 +47 опасность
перегрева
999.1 985.0
21 16.07 В 1 4000 м дым 9/4 1200 м
[Sc Ac As]
+31.5 +25.2 69 +45 +45 опасность
перегрева
998.2 1000.0
00 17.07 В 1 4000 м дым 4/0
[Ac trans]
+29.5 +25.3 78 +43 +43 опасность
перегрева
998.8 984.6
03 17.07 СВ 2 4000 м дым 4/0
[Ac trans]
+29.5 +24.5 75 +42 +47 опасность
перегрева
1000.4 986.2 +28.5
06 17.07 штиль 0 4000 м дым ясно +33.5 +25.1 62 +48 +74 опасность
перегрева
1000.9 986.7
09 17.07 ЮЗ 2 4000 м дым 4/4 1200 м
[Sc]
+36.0 +26.4 58 +53 +63 опасность
перегрева
999.8 986.3
12 17.07 Ю 2 4000 м дым 6/6 1200 м
[Sc]
+37.0 +25.2 51 +51 +52 опасность
перегрева
998.2 984.0 +37.3
15 17.07 штиль 0 4000 м дым 5/5 1200 м
[Sc]
+36.0 +24.9 53 +49 +49 опасность
перегрева
998.0 984.5
18 17.07 штиль 0 4000 м дым 6/3 1200 м
[Sc Ac As]
+35.0 +25.3 57 +49 +49 опасность
перегрева
998.2 984.0
21 17.07 штиль 0 4000 м дым 5/1 1200 м
[Sc Ac As]
+33.0 +26.1 67 +49 +49 опасность
перегрева
998.3 1000.0
00 18.07 Ю 2 4000 м дым 4/0
[Ac trans]
+32.0 +25.8 70 +47 +47 опасность
перегрева
998.7 984.5
03 18.07 Ю 1 2000 м дым 3/0
[Ac trans]
+32.0 +22.1 56 +41 +47 опасность
перегрева
999.1 985.0 +29.3
06 18.07 Ю 5 4000 м дым ясно +35.0 +24.5 55 +48 +58 опасность
перегрева
999.9 985.7
09 18.07 Ю 2 4000 м мгла 6/3 1200 м
[Sc diur, vesp Ac As]
+37.0 +23.6 46 +47 +56 опасность
перегрева
997.9 1000.0
12 18.07 СВ 4 4000 м дым {метель} 10/4 1200 м
[Sc diur, vesp Ac As]
+30.0 +22.8 65 +40 +40 очень
душно
997.4 983.3 +37.7
15 18.07 СВ 3 4000 м дым 8/4 1200 м
[Sc Ac As]
+29.0 +24.8 78 +41 +41 опасность
перегрева
998.7 984.9
18 18.07 штиль 0 4000 м дым 4/0
[Ac trans]
+27.5 +23.1 77 +37 +37 очень
душно
999.6 985.4
21 18.07 штиль 0 4000 м дым 3/0
[Ac trans]
+27.5 +23.1 77 +37 +37 очень
душно
999.8 1000.0
00 19.07 штиль 0 4000 м дым 5/3 1200 м
[Sc Ac As]
+26.5 +24.8 90 +38 +38 очень
душно
1000.0 985.8
03 19.07 штиль 0 10 км 3/0
[Ac trans]
+30.0 +24.2 71 +42 +49 опасность
перегрева
1001.3 987.1 +26.3
06 19.07 штиль 0 4000 м мгла 3/3 1200 м
[Sc diur, vesp]
+35.5 +21.7 45 +44 +62 опасность
перегрева
1001.7 987.5
09 19.07 СВ 2 4000 м мгла 1/0
[Ac trans]
+37.0 +22.8 44 +46 +65 опасность
перегрева
1000.1 1000.0
12 19.07 штиль 0 4000 м мгла 3/3 1200 м
[Sc]
+37.5 +23.6 45 +48 +52 опасность
перегрева
998.3 984.1 +38.2
15 19.07 В 3 4000 м дым 6/3 1200 м
[Sc diur, vesp Ac trans]
+35.5 +24.3 52 +47 +47 опасность
перегрева
999.5 1000.0
18 19.07 ЮВ 3 4000 м дым 4/0
[Ac trans]
+33.0 +26.1 67 +49 +49 опасность
перегрева
1000.7 986.5
21 19.07 СВ 2 4000 м дым 4/0
[Ac trans]
+31.0 +25.4 72 +45 +45 опасность
перегрева
1000.6 1000.0
00 20.07 СВ 3 4000 м дым 3/0
[Ac trans]
+29.5 +25.3 78 +43 +43 опасность
перегрева
1001.0 986.8
03 20.07 СВ 2 4000 м дым 8/4 1200 м
[Sc Ac As]
+30.5 +25.6 75 +45 +47 опасность
перегрева
1003.0 988.8 +28.8
06 20.07 СВ 2 4000 м дым ясно +34.0 +25.7 62 +49 +69 опасность
перегрева
1002.9 988.7
09 20.07 С 2 4000 м мгла 4/4 1200 м
[Sc diur, vesp]
+37.5 +23.4 45 +48 +60 опасность
перегрева
1001.8 1000.0
12 20.07 С 3 4000 м мгла 3/3 1200 м
[Sc diur, vesp]
+38.5 +23.8 43 +49 +52 опасность
перегрева
998.3 984.8 +39.0
15 20.07 штиль 0 4000 м дым 3/0
[Ac trans]
+35.5 +24.3 52 +47 +47 опасность
перегрева
999.7 1000.0
18 20.07 штиль 0 4000 м дым ясно +34.5 +25.5 60 +49 +49 опасность
перегрева
1000.1 985.9
21 20.07 штиль 0 4000 м дым ясно +33.5 +25.1 62 +48 +48 опасность
перегрева
1000.4 1000.0
00 21.07 штиль 0 4000 м дым 1/0
[Ac trans]
+32.0 +25.8 70 +47 +47 опасность
перегрева
1000.3 986.1
03 21.07 СВ 2 2000 м дым ясно +33.0 +25.3 64 +47 +54 опасность
перегрева
1001.4 987.2 +30.3
06 21.07 В 2 4000 м мгла 6/6 1200 м
[Sc diur, vesp]
+37.5 +24.2 47 +49 +57 опасность
перегрева
1001.9 987.7
09 21.07 СЗ 2 4000 м мгла 5/5 300 м
[Sc diur, vesp]
+38.0 +24.0 45 +49 +58 опасность
перегрева
1000.8 1000.0
12 21.07 СВ 2 4000 м мгла 3/3 1200 м
[Sc diur, vesp]
+38.0 +24.0 45 +49 +52 опасность
перегрева
998.1 983.9 +39.3
15 21.07 ЮВ 2 4000 м дым 1/0
[Ac trans]
+36.0 +24.0 50 +47 +47 опасность
перегрева
998.7 1000.0
18 21.07 ЮВ 2 4000 м дым 1/0
[Ac trans]
+35.0 +24.5 55 +48 +48 опасность
перегрева
999.4 985.2
21 21.07 Ю 1 4000 м дым ясно +33.0 +25.3 64 +47 +47 опасность
перегрева
999.1 1000.0
00 22.07 штиль 0 4000 м дым ясно +32.5 +25.5 67 +47 +47 опасность
перегрева
999.4 985.2
03 22.07 ЮВ 2 4000 м дым ясно +33.5 +25.9 65 +49 +56 опасность
перегрева
1000.7 986.5 +31.5
06 22.07 СВ 2 4000 м дым 3/3 1200 м
[Sc]
+37.0 +25.2 51 +51 +64 опасность
перегрева
1000.6 986.4
09 22.07 СВ 4 4000 м дым 4/4 1200 м
[Sc]
+38.0 +25.6 49 +52 +59 опасность
перегрева
999.0 985.6
12 22.07 СВ 2 4000 м мгла 1/1 1200 м
[Sc]
+39.5 +22.4 38 +48 +52 опасность
перегрева
997.2 983.1 +39.7
15 22.07 В 1 4000 м мгла 3/0
[Ci fib]
+37.0 +24.4 49 +49 +49 опасность
перегрева
997.6 1000.0

 

Местоположение метеостанции Мултан (Пакистан): широта 30.20 долгота 71.43 высота над уровнем моря 123 м.

В архиве по умолчанию представлена погода в Мултане за последнюю неделю. Архивные данные за месяц целиком и за предыдущие месяцы, начиная с января 2011 года, Вы можете получить, выбрав интересующий диапазон дат из раскрывающегося списка и нажав кнопку "Ввод!".


*Определитесь, кто Вы:
робот инопланетянин человек

Внимание! Время в таблицах - всемирное. Для получения местного времени необходимо прибавить поправку, которая равна 5 ч.

Смотрите также архив погоды в соседних городах и на ближайших метеорологических станциях:

Погода в Ханевале (Пакистан) (47 км)
Погода в Кот Адду (Пакистан) (54 км)
Погода в Дера Гази Хан (Пакистан) (79 км)
Погода в Бахавалпуре (Пакистан) (95 км)
Погода а Бахавалпур аэропорту (Пакистан) (95 км)
Погода на Авиабазе Raifiqui (Пакистан) (98 км)
Погода в Леяхе (Пакистан) (101 км)
Погода в Тоба Тек Сингх (Пакистан) (132 км)
Погода в Джанге (Пакистан) (146 км)
Погода в Сахивале (Пакистан) (161 км)

Пояснения к столбцам:

Ветер - указаны скорость ветра в м/с - средняя за 10 мин, порывы в срок и между сроками (в фигурных скобках) и направление, откуда дует ветер: С - северный, СВ - северо-восточный, В - восточный, ЮВ - юго-восточный, Ю - южный, ЮЗ - юго-западный, З - западный, СЗ - северо-западный.
Видимость - горизонтальная дальность видимости в метрах или километрах. При видимости от 1 до 10 км при отсутствии осадков обычно наблюдается дымка, при ухудшении видимости до 1 км и менее - туман. В сухую погоду видимость может ухудшаться дымом, пылью или мглою.
Явления - указаны атмосферные явления, наблюдавшиеся в срок или в последний час перед сроком; фигурными скобками обозначены явления, наблюдавшиеся между сроками (за 1-3 часа до срока); квадратными скобками обозначены град или гололедные отложения с указанием их диаметра в мм.
Облачность - указаны через наклонную черту общая и нижняя облачность в баллах и высота нижней границы облаков в метрах; квадратными скобками обозначены формы облаков: Ci - перистые, Cs - перисто-слоистые, Cc - перисто-кучевые, Ac - высококучевые, As - высокослоистые, Sc - слоисто-кучевые, Ns - слоисто-дождевые, Cu - кучевые, Cb - кучево-дождевые. Подробнее классификацию облаков см. в Атласе облаков (PDF).
T - Температура воздуха - температура, измеренная на высоте 2 м над землей.
Td - Температура точки росы - температура, при понижении до которой содержащийся в воздухе водяной пар достигнет насыщения.
f - Относительная влажность воздуха - влажноcть воздуха, измеренная на высоте 2 м над землей.
Te - Эффективная температура - температура, которую ощущает одетый по сезону человек в тени. Характеристика душности погоды. При расчете учитывается влияние влажности воздуха и скорости ветра на теплоощущения человека.
Tes - Эффективная температура на солнце - температура, которую ощущает человек, с поправкой на солнечный нагрев. Характеристика знойности погоды. Зависит от высоты солнца над горизонтом, облачности и скорости ветра. Ночью, в пасмурную погоду, а также при ветре 12 м/с и более поправка равна нулю.
P - Атмосферное давление - приведенное к уровню моря атмосферное давление.
Po - Атмосферное давление - измеренное на уровне метеостанции атмосферное давление.
Tmin - Минимальная температура - минимум температуры воздуха на высоте 2 м над землей.
Tmax - Максимальная температура - максимум температуры воздуха на высоте 2 м над землей.
R - Количество осадков - Количество выпавших осадков за период времени, мм. При наведении курсора мыши на число - период времени, за который выпало указанное количество осадков.
R24 - Количество осадков - Количество выпавших осадков за 24 часа, мм.
S - Снежный покров - Высота снежного покрова, см. При наведении курсора мыши на число - состояние снежного покрова и степень покрытия местности в баллах.